Regional Weather Roundup
Issued by NWS

Home | Current Version | Previous Version | Graphics & Text | Print | Product List | Glossary On
Versions: 1 2 3 4 5 6 7 8 9 10 11 12 13 14 15 16 17 18 19 20 21 22 23 24 25 26 27 28 29 30 31 32 33 34 35 36 37 38 39 40 41 42 43 44 45 46 47 48 49 50
000
ASUS43 KDMX 252201
RWRIA

WEATHER ROUNDUP FOR IOWA
NATIONAL WEATHER SERVICE DES MOINES IA
500 PM CDT THU MAY 25 2017

NOTE: "FAIR" INDICATES FEW OR NO CLOUDS BELOW 12,000 FEET WITH NO
SIGNIFICANT WEATHER AND/OR OBSTRUCTIONS TO VISIBILITY.

* - THESE STATIONS ARE NOT NWS STATIONS...THUS NOT UNDER NWS
QUALITY CONTROL.  THEY ALSO DO NOT REPORT WEATHER SUCH
AS PRECIPITATION OR FOG.

IAZ001>003-012>014-020>022-031>034-043>046-252300-
   NORTHWEST IOWA

CITY           SKY/WX    TMP DP  RH WIND       PRES   REMARKS
CARROLL *      SUNNY     73  50  43 S16G23    29.58S
CHEROKEE *     LGT RAIN  69  49  48 S14       29.54F
DENISON *      CLOUDY    72  48  43 S14       29.57F
LE MARS *      CLOUDY    70  52  52 S8G14     29.57R
ORANGE CITY *  CLOUDY    68  52  56 SW9       29.57R
SHELDON *      CLOUDY    68  50  52 SW7       29.56R
SIOUX CITY     CLOUDY    70  53  54 S9        29.54R
SPENCER        CLOUDY    71  49  45 S16       29.57R
STORM LAKE *   CLOUDY    72  48  43 S18G25    29.57F
$$

IAZ055>058-069>071-079>083-090>094-252300-
   SOUTHWEST IOWA

CITY           SKY/WX    TMP DP  RH WIND       PRES   REMARKS
ATLANTIC *     SUNNY     75  52  43 S15       29.57S
AUDUBON *      SUNNY     72  54  53 S8        29.61R
CLARINDA *     SUNNY     75  54  46 SE13G20   29.58R
COUNCIL BLFS * CLOUDY    75  54  46 S12G18    29.56S
CRESTON *      SUNNY     72  52  49 SE17      29.61F
HARLAN  *      CLOUDY    73  50  43 S14       29.60S
LAMONI         SUNNY     72  52  49 SE12      29.62F
RED OAK *      MOSUNNY   75  52  43 SE13G20   29.57R
SHENANDOAH *   SUNNY     77  52  41 S16G23    29.56S
$$

IAZ047>049-059>061-072>074-084-252300-
   CENTRAL IOWA

CITY           SKY/WX    TMP DP  RH WIND       PRES   REMARKS
AMES           SUNNY     71  52  50 SE13      29.62F
ANKENY *       SUNNY     73  50  43 S12       29.63S
BOONE *        SUNNY     72  52  49 S13G20    29.61F
CHARITON *     SUNNY     72  52  49 S10       29.64S
DES MOINES     MOSUNNY   74  48  39 SE15      29.62F
GRINNELL*      SUNNY     71  45  39 SE9       29.66F
KNOXVILLE *    SUNNY     72  48  43 S10       29.63S
MARSHALLTOWN   SUNNY     72  49  44 S10       29.63F
NEWTON *       SUNNY     72  48  43 S12       29.63F
PERRY *          N/A     74  46  36 SE17G23   29.60F
$$

IAZ004>006-015-016-023>025-035-036-252300-
   NORTH CENTRAL IOWA

CITY           SKY/WX    TMP DP  RH WIND       PRES   REMARKS
ALGONA *       CLOUDY    72  52  49 S15G23    29.61S
CLARION *      SUNNY     72  48  43 SE15G23   29.62F
ESTHERVILLE    MOSUNNY   68  51  54 SE21      29.59R
FORT DODGE *   SUNNY     72  52  49 SE14      29.61F
MASON CITY     SUNNY     69  49  48 SE16G23   29.65S
FOREST CITY *    N/A     68  41  37 S12       29.62F
WEBSTER CITY * SUNNY     72  46  40 SE17G23   29.59F
$$

IAZ007>011-017>019-026>030-037>042-050>054-066-252300-
   NORTHEAST IOWA

CITY           SKY/WX    TMP DP  RH WIND       PRES   REMARKS
CEDAR RAPIDS   MOSUNNY   70  52  52 VRB3      29.66S
CHARLES CITY * CLOUDY    70  48  46 S9        29.66S
CLINTON *      SUNNY     69  55  60 NE3       29.69S
DUBUQUE        MOSUNNY   68  54  60 E5        29.69R
MONTICELLO *   PTSUNNY   70  54  56 NE5       29.66S
OELWEIN *      SUNNY     70  48  46 S7        29.67S
WATERLOO       SUNNY     72  45  37 VRB3      29.64S
$$

IAZ064-065-067-068-078-252300-
   EAST CENTRAL IOWA

CITY           SKY/WX    TMP DP  RH WIND       PRES   REMARKS
DAVENPORT      SUNNY     73  51  46 CALM      29.68S
IOWA CITY      MOSUNNY   74  50  42 VRB7      29.68S
MT. PLEASANT * SUNNY     73  47  40 S7        29.68S
MUSCATINE *    MOSUNNY   73  50  43 SW7       29.67S
QUAD CITIES    SUNNY     72  50  45 VRB3      29.67R
$$

IAZ062-063-075>077-085>089-095>099-252300-
   SOUTHEAST IOWA

CITY           SKY/WX    TMP DP  RH WIND       PRES   REMARKS
BURLINGTON     MOSUNNY   72  53  51 SW9       29.68S
FAIRFIELD *    SUNNY     72  48  43 VRB5      29.66F
FORT MADISON * SUNNY     72  52  49 SW8       29.69S
KEOKUK *       SUNNY     72  52  49 S7        29.68S
OSKALOOSA *      N/A     73  47  40 S7        29.66S
OTTUMWA        SUNNY     72  49  44 SE5       29.65F
WASHINGTON *   SUNNY     73  48  40 SW8       29.68S
$$

ABBREVIATIONS USED IN REMARKS
   TC - TEMPERATURES IN CELSIUS
  WCI - WIND CHILL INDEX
   HX - HEAT INDEX
  VSB - VISIBILITY
$$




USA.gov is the U.S. government's official web portal to all federal, state and local government web resources and services.